Time,TemperatureF,DewpointF,PressureIn,WindDirection,WindDirectionDegrees,WindSpeedMPH,WindSpeedGustMPH,Humidity,HourlyPrecipIn,Conditions,Clouds,dailyrainin,SoftwareType,DateUTC
2013-04-14 00:10:00,41.2,39.0,25.16,NW,322,18.0,31.0,90,0.06,,,0.02,weatherlink.com 1.10,2013-04-14 06:10:00,
2013-04-14 00:25:00,40.6,38.0,25.16,NW,311,12.0,19.0,90,0.09,,,0.05,weatherlink.com 1.10,2013-04-14 06:25:00,
2013-04-14 00:40:00,43.2,37.0,25.15,West,273,15.0,29.0,80,0.10,,,0.06,weatherlink.com 1.10,2013-04-14 06:40:00,
2013-04-14 00:55:00,42.6,38.0,25.14,SW,224,10.0,14.0,82,0.07,,,0.06,weatherlink.com 1.10,2013-04-14 06:55:00,
2013-04-14 01:10:00,43.6,36.0,25.14,West,278,16.0,21.0,74,0.04,,,0.06,weatherlink.com 1.10,2013-04-14 07:10:00,
2013-04-14 01:25:00,45.2,34.0,25.14,NW,307,6.0,15.0,66,0.02,,,0.07,weatherlink.com 1.10,2013-04-14 07:25:00,
2013-04-14 01:40:00,44.7,33.0,25.13,WSW,244,13.0,13.0,63,0.01,,,0.07,weatherlink.com 1.10,2013-04-14 07:40:00,
2013-04-14 01:55:00,42.8,35.0,25.12,WSW,239,9.0,10.0,73,0.01,,,0.07,weatherlink.com 1.10,2013-04-14 07:55:00,
2013-04-14 02:10:00,41.7,35.0,25.12,West,264,8.0,11.0,76,0.01,,,0.07,weatherlink.com 1.10,2013-04-14 08:10:00,
2013-04-14 02:25:00,41.4,34.0,25.12,West,276,11.0,16.0,76,0.00,,,0.07,weatherlink.com 1.10,2013-04-14 08:25:00,
2013-04-14 02:40:00,40.9,34.0,25.12,West,267,4.0,13.0,76,0.00,,,0.07,weatherlink.com 1.10,2013-04-14 08:40:00,
2013-04-14 02:55:00,40.4,34.0,25.11,West,266,8.0,11.0,78,0.00,,,0.07,weatherlink.com 1.10,2013-04-14 08:55:00,
2013-04-14 03:10:00,40.0,34.0,25.11,West,278,10.0,12.0,78,0.00,,,0.07,weatherlink.com 1.10,2013-04-14 09:10:00,
2013-04-14 03:25:00,41.8,30.0,25.10,WNW,299,16.0,23.0,63,0.00,,,0.07,weatherlink.com 1.10,2013-04-14 09:25:00,
2013-04-14 03:40:00,41.3,29.0,25.09,WNW,300,24.0,28.0,63,0.00,,,0.07,weatherlink.com 1.10,2013-04-14 09:40:00,
2013-04-14 03:55:00,40.8,29.0,25.10,NW,307,19.0,32.0,64,0.00,,,0.07,weatherlink.com 1.10,2013-04-14 09:55:00,
2013-04-14 04:10:00,39.6,29.0,25.10,NW,307,20.0,27.0,67,0.00,,,0.07,weatherlink.com 1.10,2013-04-14 10:10:00,
2013-04-14 04:25:00,38.9,31.0,25.11,NW,311,15.0,21.0,73,0.00,,,0.07,weatherlink.com 1.10,2013-04-14 10:25:00,
2013-04-14 04:40:00,39.0,30.0,25.11,NW,323,17.0,26.0,71,0.00,,,0.07,weatherlink.com 1.10,2013-04-14 10:40:00,
2013-04-14 04:56:00,38.5,29.0,25.11,NW,323,17.0,27.0,69,0.00,,,0.07,weatherlink.com 1.10,2013-04-14 10:56:00,
2013-04-14 05:11:00,37.9,29.0,25.11,NW,321,21.0,30.0,69,0.00,,,0.07,weatherlink.com 1.10,2013-04-14 11:11:00,
2013-04-14 05:26:00,38.0,27.0,25.11,NW,311,25.0,33.0,65,0.00,,,0.07,weatherlink.com 1.10,2013-04-14 11:26:00,
2013-04-14 05:41:00,37.8,26.0,25.12,NW,316,23.0,34.0,62,0.00,,,0.07,weatherlink.com 1.10,2013-04-14 11:41:00,
2013-04-14 06:11:00,37.0,24.0,25.13,NW,307,30.0,44.0,59,0.00,,,0.07,weatherlink.com 1.10,2013-04-14 12:11:00,
2013-04-14 06:26:00,36.5,23.0,25.13,NW,307,27.0,39.0,58,0.00,,,0.07,weatherlink.com 1.10,2013-04-14 12:26:00,
2013-04-14 07:26:00,36.2,21.0,25.16,NW,317,26.0,29.0,55,0.00,,,0.07,weatherlink.com 1.10,2013-04-14 13:26:00,
2013-04-14 07:41:00,36.4,21.0,25.17,NW,307,36.0,43.0,53,0.00,,,0.07,weatherlink.com 1.10,2013-04-14 13:41:00,
2013-04-14 07:56:00,35.9,23.0,25.17,NW,316,29.0,44.0,61,0.00,,,0.07,weatherlink.com 1.10,2013-04-14 13:56:00,
2013-04-14 08:11:00,34.5,27.0,25.19,NW,321,30.0,39.0,75,0.00,,,0.07,weatherlink.com 1.10,2013-04-14 14:11:00,
2013-04-14 08:26:00,34.2,27.0,25.19,NNW,329,21.0,34.0,75,0.00,,,0.07,weatherlink.com 1.10,2013-04-14 14:26:00,
2013-04-14 08:41:00,34.6,27.0,25.19,NW,312,31.0,36.0,73,0.00,,,0.07,weatherlink.com 1.10,2013-04-14 14:41:00,
2013-04-14 08:56:00,34.6,28.0,25.20,NW,306,27.0,36.0,76,0.00,,,0.07,weatherlink.com 1.10,2013-04-14 14:56:00,
2013-04-14 09:11:00,34.2,27.0,25.20,NW,311,29.0,41.0,75,0.00,,,0.07,weatherlink.com 1.10,2013-04-14 15:11:00,
2013-04-14 09:41:00,33.5,29.0,25.23,NW,316,25.0,34.0,82,0.00,,,0.07,weatherlink.com 1.10,2013-04-14 15:41:00,
2013-04-14 09:56:00,34.2,28.0,25.22,NW,316,26.0,36.0,78,0.00,,,0.07,weatherlink.com 1.10,2013-04-14 15:56:00,
2013-04-14 10:11:00,34.4,28.0,25.23,NW,316,25.0,37.0,78,0.00,,,0.07,weatherlink.com 1.10,2013-04-14 16:11:00,
2013-04-14 10:26:00,34.3,28.0,25.24,NW,326,27.0,31.0,78,0.00,,,0.07,weatherlink.com 1.10,2013-04-14 16:26:00,
2013-04-14 10:41:00,34.9,29.0,25.25,NW,319,25.0,33.0,79,0.00,,,0.07,weatherlink.com 1.10,2013-04-14 16:41:00,
2013-04-14 10:56:00,33.9,28.0,25.25,WNW,302,22.0,32.0,78,0.00,,,0.07,weatherlink.com 1.10,2013-04-14 16:56:00,
2013-04-14 11:11:00,35.2,30.0,25.25,NW,314,25.0,33.0,80,0.00,,,0.07,weatherlink.com 1.10,2013-04-14 17:11:00,
2013-04-14 11:27:00,35.0,29.0,25.26,NW,311,17.0,28.0,80,0.00,,,0.07,weatherlink.com 1.10,2013-04-14 17:27:00,
2013-04-14 11:41:00,35.7,29.0,25.26,NW,311,22.0,27.0,77,0.00,,,0.07,weatherlink.com 1.10,2013-04-14 17:41:00,
2013-04-14 12:11:00,36.2,30.0,25.26,NNW,333,18.0,28.0,77,0.00,,,0.07,weatherlink.com 1.10,2013-04-14 18:11:00,
2013-04-14 12:26:00,36.7,28.0,25.26,NW,323,22.0,29.0,72,0.00,,,0.07,weatherlink.com 1.10,2013-04-14 18:26:00,
2013-04-14 12:41:00,37.5,28.0,25.26,NW,317,17.0,29.0,69,0.00,,,0.07,weatherlink.com 1.10,2013-04-14 18:41:00,
2013-04-14 12:56:00,37.4,28.0,25.26,NW,307,25.0,30.0,69,0.00,,,0.07,weatherlink.com 1.10,2013-04-14 18:56:00,
2013-04-14 13:11:00,38.5,27.0,25.26,NW,314,23.0,34.0,64,0.00,,,0.07,weatherlink.com 1.10,2013-04-14 19:11:00,
2013-04-14 13:27:00,38.5,28.0,25.26,NW,314,24.0,35.0,66,0.00,,,0.07,weatherlink.com 1.10,2013-04-14 19:27:00,
2013-04-14 13:41:00,39.3,29.0,25.26,NW,304,17.0,31.0,68,0.00,,,0.07,weatherlink.com 1.10,2013-04-14 19:41:00,
2013-04-14 13:56:00,39.9,29.0,25.26,NW,304,22.0,28.0,64,0.00,,,0.07,weatherlink.com 1.10,2013-04-14 19:56:00,
2013-04-14 14:12:00,40.8,30.0,25.26,NW,310,22.0,29.0,66,0.00,,,0.07,weatherlink.com 1.10,2013-04-14 20:12:00,
2013-04-14 14:27:00,39.0,30.0,25.27,NW,324,16.0,28.0,71,0.00,,,0.07,weatherlink.com 1.10,2013-04-14 20:27:00,
2013-04-14 14:42:00,39.4,29.0,25.27,NW,318,15.0,28.0,66,0.00,,,0.07,weatherlink.com 1.10,2013-04-14 20:42:00,
2013-04-14 14:57:00,40.4,28.0,25.26,NW,314,17.0,28.0,61,0.00,,,0.07,weatherlink.com 1.10,2013-04-14 20:57:00,
2013-04-14 15:12:00,38.8,27.0,25.27,NNW,329,24.0,33.0,62,0.00,,,0.07,weatherlink.com 1.10,2013-04-14 21:12:00,
2013-04-14 15:27:00,38.3,27.0,25.27,NW,305,11.0,29.0,64,0.00,,,0.07,weatherlink.com 1.10,2013-04-14 21:27:00,
2013-04-14 15:42:00,39.4,21.0,25.26,WNW,283,12.0,24.0,48,0.00,,,0.07,weatherlink.com 1.10,2013-04-14 21:42:00,
2013-04-14 15:57:00,40.8,20.0,25.26,NW,317,22.0,32.0,44,0.00,,,0.07,weatherlink.com 1.10,2013-04-14 21:57:00,
2013-04-14 16:12:00,40.7,21.0,25.27,NNW,333,27.0,30.0,45,0.00,,,0.07,weatherlink.com 1.10,2013-04-14 22:12:00,
2013-04-14 16:27:00,39.9,24.0,25.27,NW,316,22.0,32.0,53,0.00,,,0.07,weatherlink.com 1.10,2013-04-14 22:27:00,
2013-04-14 16:42:00,39.3,20.0,25.28,WNW,298,26.0,45.0,47,0.00,,,0.07,weatherlink.com 1.10,2013-04-14 22:42:00,
2013-04-14 16:57:00,40.7,20.0,25.27,WNW,302,23.0,36.0,43,0.00,,,0.07,weatherlink.com 1.10,2013-04-14 22:57:00,
2013-04-14 17:12:00,41.6,21.0,25.28,NW,304,15.0,34.0,44,0.00,,,0.07,weatherlink.com 1.10,2013-04-14 23:12:00,
2013-04-14 17:27:00,42.1,18.0,25.28,NW,314,18.0,29.0,38,0.00,,,0.07,weatherlink.com 1.10,2013-04-14 23:27:00,
2013-04-14 17:42:00,42.5,20.0,25.28,NW,314,18.0,29.0,40,0.00,,,0.07,weatherlink.com 1.10,2013-04-14 23:42:00,
2013-04-14 17:57:00,42.2,20.0,25.29,NNW,334,18.0,31.0,41,0.00,,,0.07,weatherlink.com 1.10,2013-04-14 23:57:00,
2013-04-14 18:12:00,41.4,19.0,25.30,NW,324,20.0,24.0,40,0.00,,,0.07,weatherlink.com 1.10,2013-04-15 00:12:00,
2013-04-14 18:27:00,41.1,21.0,25.30,NW,314,15.0,24.0,44,0.00,,,0.07,weatherlink.com 1.10,2013-04-15 00:27:00,
2013-04-14 18:42:00,40.3,21.0,25.31,NW,318,17.0,23.0,46,0.00,,,0.07,weatherlink.com 1.10,2013-04-15 00:42:00,
2013-04-14 18:57:00,39.4,20.0,25.31,NW,312,15.0,21.0,46,0.00,,,0.07,weatherlink.com 1.10,2013-04-15 00:57:00,
2013-04-14 19:12:00,38.0,22.0,25.31,NW,311,11.0,16.0,52,0.00,,,0.07,weatherlink.com 1.10,2013-04-15 01:12:00,
2013-04-14 19:27:00,36.6,22.0,25.31,NW,306,9.0,13.0,55,0.00,,,0.07,weatherlink.com 1.10,2013-04-15 01:27:00,
2013-04-14 19:42:00,34.6,22.0,25.31,WNW,297,6.0,9.0,61,0.00,,,0.07,weatherlink.com 1.10,2013-04-15 01:42:00,
2013-04-14 19:57:00,33.3,22.0,25.32,WNW,301,8.0,9.0,64,0.00,,,0.07,weatherlink.com 1.10,2013-04-15 01:57:00,
2013-04-14 20:12:00,32.6,22.0,25.32,NW,309,7.0,10.0,66,0.00,,,0.07,weatherlink.com 1.10,2013-04-15 02:12:00,
2013-04-14 20:27:00,32.0,23.0,25.34,WNW,299,7.0,9.0,69,0.00,,,0.07,weatherlink.com 1.10,2013-04-15 02:27:00,
2013-04-14 20:42:00,31.6,23.0,25.34,NW,304,5.0,8.0,70,0.00,,,0.07,weatherlink.com 1.10,2013-04-15 02:42:00,
2013-04-14 20:57:00,31.4,23.0,25.36,NW,325,9.0,10.0,70,0.00,,,0.07,weatherlink.com 1.10,2013-04-15 02:57:00,
2013-04-14 21:12:00,31.2,23.0,25.36,NNW,330,6.0,10.0,72,0.00,,,0.07,weatherlink.com 1.10,2013-04-15 03:12:00,
2013-04-14 21:27:00,30.7,23.0,25.37,NNW,329,7.0,7.0,74,0.00,,,0.07,weatherlink.com 1.10,2013-04-15 03:27:00,
2013-04-14 21:57:00,31.8,25.0,25.39,NNW,342,6.0,11.0,76,0.00,,,0.07,weatherlink.com 1.10,2013-04-15 03:57:00,
2013-04-14 22:12:00,31.4,25.0,25.39,NNW,328,6.0,7.0,78,0.00,,,0.07,weatherlink.com 1.10,2013-04-15 04:12:00,
2013-04-14 22:27:00,31.5,25.0,25.39,NNW,335,8.0,12.0,77,0.00,,,0.07,weatherlink.com 1.10,2013-04-15 04:27:00,
2013-04-14 22:42:00,31.1,25.0,25.39,NNE,27,10.0,13.0,79,0.00,,,0.07,weatherlink.com 1.10,2013-04-15 04:42:00,
2013-04-14 22:57:00,30.5,25.0,25.37,North,352,12.0,20.0,81,0.00,,,0.07,weatherlink.com 1.10,2013-04-15 04:57:00,
2013-04-14 23:12:00,29.8,25.0,25.39,NNW,338,10.0,15.0,81,0.00,,,0.07,weatherlink.com 1.10,2013-04-15 05:12:00,
2013-04-14 23:27:00,29.6,24.0,25.37,NW,322,14.0,21.0,80,0.00,,,0.07,weatherlink.com 1.10,2013-04-15 05:27:00,
2013-04-14 23:42:00,29.2,24.0,25.36,NNW,347,14.0,22.0,80,0.00,,,0.07,weatherlink.com 1.10,2013-04-15 05:42:00,
2013-04-14 23:58:00,28.8,24.0,25.35,NNE,31,14.0,22.0,81,0.00,,,0.07,weatherlink.com 1.10,2013-04-15 05:58:00,